Date,TemperatureHighF,TemperatureAvgF,TemperatureLowF,DewpointHighF,DewpointAvgF,DewpointLowF,HumidityHigh,HumidityAvg,HumidityLow,PressureMaxIn,PressureMinIn,WindSpeedMaxMPH,WindSpeedAvgMPH,GustSpeedMaxMPH,PrecipitationSumIn
2013-1-1,49,43,39,43,35,-100,91,75,56,30.16,30.11,3,-10,7,0.00
2013-1-2,50,47,44,45,43,41,93,88,76,30.30,30.09,6,0,12,0.13
2013-1-3,53,48,44,45,42,39,85,78,69,30.50,30.30,16,3,18,0.00
2013-1-4,52,45,40,45,39,36,88,80,68,30.48,30.30,2,0,5,0.00
2013-1-5,50,44,41,43,39,35,89,81,73,30.29,30.09,2,0,4,0.00
2013-1-6,57,50,45,45,39,32,90,68,41,30.20,30.09,10,2,17,0.00
2013-1-7,58,49,42,46,39,32,91,69,42,30.24,30.06,14,3,18,0.00
2013-1-8,51,46,43,38,33,30,69,61,53,30.29,30.22,16,4,23,0.00
2013-1-17,46,39,35,41,36,32,94,89,83,29.38,29.32,5,1,9,0.87
2013-1-18,37,35,33,35,33,31,94,92,87,29.60,29.32,2,0,13,0.28
2013-1-19,51,40,33,49,36,30,95,89,73,29.69,29.61,3,0,12,0.11
2013-1-20,58,54,52,52,50,49,92,86,77,29.61,29.47,9,3,20,0.35
2013-1-21,52,47,43,49,45,41,95,92,83,29.57,29.35,6,1,17,0.77
2013-1-22,49,44,39,44,41,37,96,91,68,29.82,29.57,6,1,20,0.12
2013-1-23,50,41,36,43,38,34,96,90,76,29.84,29.63,7,2,15,1.07
2013-1-24,46,43,39,43,40,38,96,92,87,29.61,29.38,5,0,10,0.48
2013-1-25,47,43,40,39,36,30,93,77,63,29.59,29.41,15,7,30,0.01
2013-1-26,46,40,35,34,30,28,77,68,62,29.84,29.59,9,4,21,0.00
2013-1-27,47,39,32,36,32,28,90,74,59,30.00,29.84,5,1,12,0.00
2013-1-28,46,42,39,40,37,34,91,84,62,30.01,29.88,10,2,31,0.15
2013-1-29,52,45,40,41,38,35,90,76,64,30.23,30.02,14,4,31,0.00
2013-1-30,53,47,40,47,43,38,91,88,77,30.23,30.16,2,0,8,0.00
2013-1-31,59,51,47,50,46,44,96,85,63,30.20,30.11,5,1,15,0.00
2013-2-1,56,51,47,50,48,45,95,91,80,30.16,29.81,3,1,10,0.00
2013-2-2,55,51,42,50,48,40,95,88,74,29.80,29.28,12,4,31,0.39
2013-2-3,46,41,38,44,37,30,96,88,68,29.92,29.40,12,4,24,0.70
2013-2-4,48,41,38,31,27,22,72,57,37,30.14,29.93,10,4,23,0.00
2013-2-5,48,44,38,46,35,23,94,73,53,30.13,29.80,6,1,10,0.22
2013-2-6,51,45,37,47,43,34,96,92,84,29.80,29.47,6,1,17,0.17
2013-2-7,43,39,36,41,36,33,93,89,83,29.54,29.49,6,1,15,0.24
2013-2-8,42,38,35,34,32,27,90,78,64,29.73,29.52,9,4,23,0.01
2013-2-9,41,35,28,32,28,24,91,75,65,29.86,29.71,9,3,18,0.00
2013-2-10,41,33,28,28,26,23,91,77,55,29.96,29.86,6,1,14,0.09
2013-2-11,48,40,29,42,33,19,90,75,55,29.98,29.63,10,3,22,0.28
2013-2-12,45,41,38,43,39,37,94,93,88,29.66,29.58,7,2,20,1.24
2013-2-13,49,42,38,42,38,34,95,85,68,29.81,29.63,5,0,12,0.13
2013-2-14,48,42,38,38,36,33,88,78,68,29.98,29.81,16,5,24,0.00
2013-2-15,39,38,37,33,33,32,85,83,80,29.98,29.96,2,1,7,0.00
2013-2-24,42,38,37,34,34,33,88,84,75,29.94,29.79,1,0,7,0.00
2013-2-25,47,39,34,39,35,31,93,85,72,30.04,29.95,3,0,9,0.05
2013-2-26,48,43,41,41,37,34,90,78,67,30.10,29.99,12,3,22,0.04
2013-2-27,51,43,36,39,36,33,89,78,57,30.19,30.08,3,1,9,0.00
2013-2-28,54,45,37,41,37,33,85,73,54,30.23,30.15,9,2,21,0.00
2013-3-1,50,47,45,41,39,36,80,74,69,30.15,29.86,20,8,37,0.00
2013-3-2,47,46,44,42,40,32,86,79,60,29.97,29.76,18,9,44,0.50
2013-3-3,55,45,38,39,33,29,82,64,42,30.08,29.96,10,2,26,0.00
2013-3-4,56,46,37,46,39,29,88,77,66,30.20,30.06,3,0,7,0.00
2013-3-5,58,49,41,45,38,31,79,65,51,30.20,30.03,6,1,28,0.01
2013-3-6,58,52,49,50,45,39,90,77,52,30.02,29.75,10,3,24,0.13
2013-3-7,56,53,52,53,51,50,96,93,89,29.78,29.73,5,1,13,0.39
2013-3-28,55,53,50,52,50,47,94,91,88,29.92,29.87,2,0,10,0.00
2013-3-29,63,55,49,54,50,46,95,86,68,29.90,29.81,3,1,10,0.06
2013-3-30,59,54,48,52,51,46,96,89,77,29.81,29.52,7,2,20,0.75
2013-3-31,52,50,46,50,47,44,97,92,77,29.71,29.52,9,3,18,0.46
2013-4-1,51,48,47,49,47,45,95,95,93,29.75,29.69,2,0,8,0.00
2013-4-2,55,50,47,50,47,46,96,91,81,29.52,29.41,8,4,23,1.36
2013-4-3,55,49,46,50,47,44,97,92,82,29.80,29.53,3,0,9,0.07
2013-4-4,62,53,46,51,47,43,95,81,49,29.84,29.58,6,1,15,0.00
2013-4-5,60,54,49,53,48,42,94,81,53,29.79,29.43,8,2,25,0.06
2013-4-6,65,55,46,50,46,43,93,75,55,29.80,29.72,10,3,23,0.00
2013-4-7,60,53,47,44,42,41,80,67,54,29.75,29.63,14,7,30,0.00
2013-4-8,57,49,43,47,40,34,90,72,60,29.91,29.74,7,2,14,0.00
2013-4-9,61,53,48,51,48,46,92,84,65,29.97,29.84,5,1,14,0.00
2013-4-10,57,51,49,50,46,44,92,85,77,29.97,29.92,2,0,10,0.00
2013-4-12,55,55,53,50,50,49,84,83,83,30.05,30.03,0,0,3,0.00
2013-4-13,65,57,52,54,51,48,91,81,67,30.25,30.05,2,0,12,0.00
2013-4-14,70,59,48,54,44,26,91,62,27,30.32,30.25,8,2,23,0.00
2013-4-15,72,61,52,46,38,24,59,42,28,30.29,30.13,6,1,14,0.00
2013-4-16,70,61,53,55,45,39,67,57,47,30.17,30.11,5,1,12,0.00
2013-4-19,72,64,57,59,55,50,85,73,55,29.98,29.94,2,0,8,0.00
2013-4-20,61,56,52,55,52,49,94,89,80,30.01,29.97,2,0,6,0.00
2013-5-19,55,54,52,48,48,48,84,80,76,30.06,30.04,0,0,5,0.00
2013-5-20,71,60,51,55,50,41,93,73,47,30.11,30.06,3,1,12,0.00
2013-5-21,76,60,50,55,47,35,92,64,49,30.09,29.83,5,1,10,0.08
2013-5-22,71,61,56,62,56,53,92,85,65,29.81,29.54,9,1,32,0.02
2013-5-23,63,61,57,59,56,55,95,82,79,29.52,29.45,5,4,12,0.09
2013-5-24,62,62,62,55,55,55,79,79,79,29.52,29.52,5,5,5,0.00
2013-5-26,62,57,49,52,47,44,93,70,58,30.03,29.90,3,1,15,0.00
2013-5-27,52,51,47,49,48,45,94,91,88,30.03,29.98,0,0,5,0.00
2013-5-28,52,52,52,49,49,49,90,90,90,30.01,30.01,0,0,0,0.00
2013-5-29,69,57,52,56,51,49,91,82,63,30.01,29.70,3,1,12,0.02
2013-5-30,62,54,49,50,48,45,92,80,62,29.79,29.69,3,1,12,0.23
2013-5-31,45,45,45,43,43,43,93,93,93,29.75,29.75,0,0,0,0.02
2013-6-1,54,47,45,52,45,43,94,93,93,29.78,29.73,0,0,5,0.06
2013-6-2,69,57,48,58,52,46,96,86,66,29.96,29.78,1,0,9,0.01
2013-6-3,71,59,52,59,54,49,93,83,60,29.95,29.88,2,0,9,0.69
2013-6-4,65,58,53,59,55,51,93,88,75,29.98,29.91,2,0,8,0.03
2013-6-5,71,61,53,61,56,50,93,83,66,30.05,29.97,5,1,7,0.00
2013-6-6,79,65,54,62,56,50,94,75,37,30.07,29.99,7,1,16,0.00
2013-6-7,78,68,61,58,54,51,77,62,40,30.01,29.94,7,2,17,0.00
2013-6-8,78,68,58,64,58,51,86,72,52,29.99,29.92,2,0,8,0.00
2013-6-9,80,67,60,65,57,45,87,71,51,29.97,29.86,3,1,10,0.00
2013-6-10,73,64,57,61,54,44,89,70,53,29.91,29.84,2,0,10,0.00
2013-6-11,71,61,55,59,56,52,92,84,62,29.95,29.86,2,0,7,0.12
2013-6-12,77,66,55,54,51,43,92,61,36,30.01,29.94,6,2,18,0.01
2013-6-13,78,70,63,53,49,45,59,48,40,30.01,29.96,12,4,25,0.00
2013-6-14,82,71,61,62,56,51,73,60,42,30.03,29.97,3,1,9,0.00
2013-6-15,78,70,59,67,61,54,89,74,64,30.05,30.01,2,0,7,0.00
2013-6-16,84,72,60,68,62,57,91,72,55,30.07,30.02,2,0,8,0.00
2013-6-17,88,76,65,72,66,58,93,74,57,30.04,29.98,3,0,8,0.00
2013-6-18,91,79,70,72,66,62,82,65,44,30.00,29.97,3,0,8,0.00
2013-6-19,91,80,72,72,66,56,78,61,46,30.00,29.96,2,0,8,0.00
2013-6-20,92,80,72,70,61,54,70,54,34,30.00,29.95,2,1,10,0.00
2013-6-21,90,78,68,68,58,50,65,52,34,30.00,29.97,3,1,10,0.00
2013-6-22,86,76,67,67,57,49,67,54,44,30.01,29.95,2,1,10,0.00
2013-6-23,83,71,63,64,56,41,90,61,39,30.00,29.93,5,1,13,0.02
2013-6-24,75,66,61,63,58,55,91,78,55,29.94,29.89,5,1,12,0.01
2013-6-25,76,67,60,60,58,55,92,73,53,30.03,29.92,3,0,8,0.00
2013-6-26,80,65,54,59,53,46,83,66,38,30.06,30.00,9,2,17,0.05
2013-6-27,74,66,57,58,54,50,80,66,50,30.07,30.03,9,2,21,0.00
2013-6-28,76,66,56,60,57,52,92,73,50,30.06,29.98,3,1,12,0.00
2013-6-29,73,64,58,58,54,50,83,70,47,30.01,29.93,6,1,14,0.01
2013-6-30,76,66,53,57,51,45,79,61,42,30.08,29.99,7,1,12,0.00
2013-7-1,80,70,59,60,54,51,76,60,39,30.10,30.05,3,1,10,0.00
2013-7-2,84,72,63,61,56,51,70,58,44,30.08,30.02,3,1,9,0.00
2013-7-3,84,73,64,59,54,44,71,54,38,30.04,29.95,2,1,12,0.00
2013-7-4,78,67,63,64,58,45,88,72,49,30.03,29.95,3,0,9,0.01
2013-7-5,85,72,60,64,56,45,86,59,34,30.08,30.01,7,2,20,0.00
2013-7-6,86,76,65,61,57,50,69,53,42,30.08,30.00,7,2,16,0.00
2013-7-7,85,73,66,66,61,55,89,67,46,30.07,30.00,6,1,16,0.37
2013-7-8,82,72,64,66,62,58,85,72,54,30.11,30.04,5,1,16,0.11
2013-7-9,84,71,62,66,62,57,91,73,50,30.07,29.97,5,1,15,0.09
2013-7-10,83,71,60,68,62,58,91,75,50,29.97,29.88,2,0,9,0.01
2013-7-11,81,71,64,69,64,59,89,79,64,29.93,29.86,5,0,10,0.00
2013-7-12,82,73,65,69,66,61,91,79,63,30.03,29.93,3,1,13,0.02
2013-7-13,85,74,64,69,65,60,94,75,51,30.04,29.99,2,0,10,0.00
2013-7-14,84,72,63,69,64,60,91,79,52,30.02,29.97,5,0,9,0.17
2013-7-15,86,72,60,66,61,57,92,71,46,30.04,30.00,3,1,14,0.01
2013-7-16,85,76,65,61,56,47,74,50,39,30.08,30.04,6,2,14,0.00
2013-7-17,85,76,69,60,53,45,51,44,37,30.08,30.02,8,3,17,0.00
2013-7-18,86,76,63,62,59,55,80,57,40,30.06,30.03,3,1,9,0.00
2013-7-19,84,73,66,67,61,56,78,66,52,30.05,29.99,5,1,13,0.00
2013-7-20,85,73,64,65,61,57,83,68,44,29.99,29.93,3,0,9,0.00
2013-7-21,81,70,63,68,62,58,88,76,55,30.01,29.95,6,0,20,0.09
2013-7-22,86,76,63,67,61,57,81,62,46,29.99,29.92,5,1,15,0.00
2013-7-23,88,77,66,68,61,57,80,60,38,29.96,29.90,5,1,9,0.00
2013-7-24,87,76,66,71,66,58,87,72,55,30.02,29.95,2,0,10,0.00
2013-7-25,87,76,67,71,66,57,92,72,48,30.04,30.00,3,0,7,0.00
2013-7-26,90,77,67,74,67,60,87,72,52,30.02,29.95,2,0,9,0.00
2013-7-27,93,81,70,73,66,58,81,63,46,29.96,29.92,3,0,9,0.00
2013-7-28,93,85,77,72,68,60,64,56,50,30.04,30.00,1,0,8,0.00
2013-7-29,94,82,73,70,65,59,79,59,37,30.05,30.00,2,0,9,0.00
2013-7-30,91,79,70,71,66,60,92,67,38,30.00,29.91,3,1,10,0.00
2013-7-31,86,78,71,63,56,48,72,49,36,29.94,29.90,12,5,26,0.00
2013-8-1,80,75,72,60,54,51,59,49,40,29.97,29.92,7,4,20,0.00
2013-8-4,98,90,80,68,62,55,53,39,28,30.04,29.99,3,1,9,0.00
2013-8-5,97,84,73,70,60,50,58,46,33,30.01,29.93,2,0,9,0.00
2013-8-6,95,84,75,72,63,52,66,50,39,29.99,29.93,3,1,8,0.00
2013-8-7,96,83,74,73,64,52,64,52,36,29.95,29.91,3,0,9,0.00
2013-8-8,97,84,75,72,64,54,63,50,38,29.95,29.90,3,0,8,0.00
2013-8-9,93,81,68,72,62,56,87,55,35,29.92,29.80,8,2,22,0.33
2013-8-10,80,76,73,65,60,57,65,59,53,29.90,29.83,6,3,18,0.00
2013-8-11,86,75,66,66,61,56,78,62,47,29.95,29.88,6,2,14,0.00
2013-8-12,88,77,68,70,64,60,82,67,50,29.99,29.94,3,0,10,0.00
2013-8-13,88,75,66,70,64,60,87,70,47,29.99,29.94,3,1,8,0.00
2013-8-14,87,74,67,70,64,56,89,71,51,29.96,29.89,7,1,16,0.00
2013-8-15,84,76,70,64,62,57,73,61,50,30.01,29.93,10,5,31,0.00
2013-8-16,89,77,68,64,60,56,74,57,34,30.03,29.97,8,2,15,0.00
2013-8-17,90,77,67,67,62,57,78,60,41,30.02,29.97,3,1,9,0.00
2013-8-18,90,79,69,66,59,53,62,52,34,30.05,30.00,2,1,10,0.00
2013-8-19,86,74,68,64,59,49,73,59,45,29.98,29.95,1,0,5,0.00
2013-8-20,84,72,66,68,61,48,90,70,46,29.98,29.89,12,2,25,0.00
2013-8-21,80,73,64,64,59,55,77,64,52,29.99,29.91,10,6,25,0.00
2013-8-22,88,75,68,63,60,55,73,59,39,29.98,29.92,9,2,26,0.00
2013-8-23,87,75,68,67,62,56,78,65,45,29.99,29.94,3,1,10,0.00
2013-8-24,85,74,66,67,62,55,91,69,43,29.99,29.91,2,1,12,0.00
2013-8-25,76,68,62,67,63,59,94,84,63,29.93,29.84,3,0,15,0.65
2013-8-26,83,74,66,67,64,61,94,73,50,29.90,29.83,3,0,10,0.00
2013-8-27,80,70,65,68,64,61,93,82,64,29.88,29.83,3,0,8,0.23
2013-8-30,77,72,65,60,57,53,70,60,53,30.06,29.98,9,6,24,0.35
2013-8-31,80,71,65,57,52,46,63,52,42,30.06,30.00,9,5,21,0.00
2013-9-1,82,72,65,64,52,44,82,51,31,30.07,30.01,9,2,23,0.00
2013-9-2,84,71,59,60,54,51,80,58,36,30.16,30.05,9,2,15,0.00
2013-9-3,82,72,61,58,52,47,72,50,33,30.19,30.14,9,2,22,0.00
2013-9-4,84,75,65,55,51,47,55,43,33,30.18,30.10,9,3,18,0.00
2013-9-5,86,74,65,62,54,47,68,51,34,30.10,29.95,3,1,10,0.00
2013-9-6,87,73,63,64,57,53,75,58,35,29.96,29.89,3,0,9,0.00
2013-9-7,87,73,64,66,60,56,78,65,45,30.10,29.96,2,0,8,0.00
2013-9-8,85,73,64,69,63,53,90,71,49,30.16,30.10,2,0,8,0.00
2013-9-9,80,71,65,68,64,53,94,78,57,30.14,30.07,3,0,13,0.14
2013-9-10,75,68,61,66,63,58,96,87,72,30.11,29.96,5,0,12,1.11
2013-9-11,76,67,60,67,62,58,96,87,67,30.04,29.97,3,0,10,0.38
2013-9-12,71,64,57,64,60,53,96,87,61,30.01,29.94,3,0,12,0.68
2013-9-13,76,64,57,60,56,53,89,76,45,30.12,29.98,3,1,8,0.01
2013-9-14,76,66,58,62,58,53,91,78,59,30.13,30.07,2,1,12,0.00
2013-9-15,71,64,58,61,59,56,93,84,70,30.08,29.85,2,0,8,0.01
2013-9-16,75,66,60,63,60,58,96,83,61,29.85,29.75,5,0,14,0.54
2013-9-17,67,63,59,64,59,56,95,87,73,29.75,29.67,5,1,15,0.09
2013-9-18,73,63,56,61,57,52,92,81,62,29.79,29.73,3,0,9,0.00
2013-9-19,75,66,60,65,61,55,95,85,65,29.85,29.73,2,0,9,0.10
2013-9-20,75,65,58,62,57,50,85,75,60,30.03,29.86,5,1,12,0.00
2013-9-21,78,67,57,62,55,52,88,68,41,30.14,30.03,10,2,21,0.00
2013-9-22,71,66,60,53,48,41,70,53,44,30.16,30.12,14,8,30,0.00
2013-9-23,74,64,58,53,49,41,72,58,44,30.15,30.06,9,3,23,0.00
2013-9-24,76,64,56,59,54,49,92,72,50,30.08,30.04,3,0,8,0.00
2013-9-25,74,65,58,63,59,55,93,83,67,30.06,30.01,2,0,9,0.00
2013-9-26,75,66,57,65,60,56,94,84,64,30.04,29.97,3,0,8,0.00
2013-9-27,75,67,60,67,63,59,95,88,73,30.01,29.96,2,0,7,0.00
2013-9-28,77,67,60,66,62,58,96,84,67,29.98,29.92,2,0,6,0.00
2013-9-29,74,67,62,67,61,56,93,82,66,29.94,29.75,2,0,7,0.09
2013-9-30,70,66,60,66,63,58,96,90,79,29.76,29.59,5,1,24,0.99
2013-10-1,74,65,58,62,59,55,95,81,60,29.80,29.64,5,1,9,0.00
2013-10-2,67,62,58,56,53,50,85,74,64,30.06,29.80,16,6,31,0.00
2013-10-3,64,58,54,50,47,45,77,67,54,30.26,30.07,14,8,35,0.00
2013-10-4,66,57,48,53,48,43,87,72,62,30.31,30.24,6,1,12,0.00
2013-10-5,61,58,56,60,56,51,96,92,79,30.26,30.09,2,0,15,1.26
2013-10-6,72,64,58,64,61,57,97,90,75,30.11,30.01,9,1,24,0.43
2013-10-7,73,64,57,65,60,55,96,87,71,30.12,30.03,3,0,7,0.26
2013-10-8,70,61,57,62,57,53,93,85,69,30.14,30.09,7,0,14,0.01
2013-10-9,66,60,56,60,57,54,95,90,79,30.12,30.03,1,0,10,0.55
2013-10-10,70,61,56,61,58,54,97,89,72,30.05,29.86,6,0,12,0.06
2013-10-11,68,63,60,63,61,58,97,92,77,30.05,29.86,5,1,14,3.29
2013-10-12,66,62,58,64,61,57,97,94,88,30.15,30.04,3,0,12,0.46
2013-10-13,76,66,60,67,60,52,95,80,56,30.15,30.10,2,0,9,0.00
2013-10-14,77,65,57,63,55,49,79,71,47,30.15,30.09,5,0,12,0.00
2013-10-15,70,64,60,62,56,53,90,76,69,30.11,29.98,2,0,6,0.00
2013-10-16,68,62,59,65,58,44,96,89,56,29.96,29.70,7,1,16,1.00
2013-10-17,70,60,49,51,44,35,72,58,39,30.03,29.86,8,1,17,0.00
2013-10-18,72,60,52,53,44,36,74,57,45,30.11,30.02,2,0,7,0.00
2013-10-19,71,61,54,56,47,38,85,61,49,30.27,30.11,3,0,9,0.00
2013-10-20,72,63,55,62,58,53,95,85,68,30.31,30.25,2,0,6,0.01
2013-10-21,72,65,60,63,59,55,90,81,69,30.29,30.22,2,0,7,0.00
2013-10-22,74,65,59,63,59,56,91,83,68,30.23,30.15,1,0,4,0.00
2013-10-23,73,64,58,65,59,53,92,84,73,30.20,30.13,2,0,6,0.00
2013-10-24,70,62,55,63,57,51,92,84,70,30.19,30.15,1,0,5,0.00
2013-10-25,74,64,57,63,58,54,90,80,60,30.19,30.15,2,0,8,0.00
2013-10-26,73,64,59,63,58,54,90,80,69,30.24,30.18,2,0,5,0.00
2013-10-27,68,62,57,62,59,55,96,91,79,30.25,30.20,1,0,5,0.00
2013-10-28,71,63,57,63,60,56,96,91,75,30.21,30.12,2,0,9,0.01
2013-10-29,72,62,56,64,58,50,95,88,77,30.11,30.00,2,0,5,0.00
2013-10-30,69,60,54,62,56,50,95,87,76,30.06,29.97,3,0,8,0.00
2013-10-31,71,64,61,58,55,51,87,75,56,30.17,30.07,7,3,18,0.00
2013-11-1,70,62,56,59,55,52,89,78,62,30.18,30.13,6,1,16,0.00
2013-11-2,66,61,56,60,57,52,91,87,78,30.15,30.09,2,0,7,0.10
2013-11-3,65,62,60,62,60,58,95,94,89,30.10,29.99,3,0,9,0.07
2013-11-4,69,62,60,60,58,56,95,86,72,30.00,29.61,7,3,17,0.03
2013-11-5,63,58,53,58,56,51,94,90,78,29.59,29.40,8,2,24,0.85
2013-11-6,66,56,49,58,50,46,94,83,65,29.92,29.52,2,0,7,0.01
2013-11-7,68,60,51,60,52,46,95,78,57,30.13,29.92,2,0,9,0.00
2013-11-8,65,60,57,63,59,55,97,94,86,30.13,30.09,1,0,6,0.01
2013-11-9,68,60,55,61,58,52,95,91,79,30.10,29.98,3,0,9,0.01
2013-11-10,61,56,52,56,53,50,96,91,74,30.00,29.60,7,1,16,0.96
2013-11-11,54,51,46,51,48,43,96,88,82,29.70,29.38,10,4,21,0.65
2013-11-12,58,55,51,53,51,46,90,85,80,29.94,29.70,14,7,35,0.20
2013-11-13,59,57,56,54,52,51,88,83,78,29.95,29.85,13,6,28,0.14
2013-11-14,58,57,57,53,52,52,87,85,82,29.95,29.94,6,4,14,0.05
2013-11-22,48,48,47,46,46,45,93,92,92,29.51,29.45,6,3,16,0.61
2013-11-23,47,45,42,46,42,40,95,91,78,29.63,29.42,9,1,14,0.76
2013-11-24,49,45,41,45,41,39,94,87,77,29.71,29.59,6,1,18,0.42
2013-11-25,50,45,33,44,38,31,92,78,65,29.85,29.71,12,4,28,0.15
2013-11-27,42,39,36,33,32,30,87,77,66,30.26,30.10,9,6,24,0.21
2013-11-28,42,39,36,38,36,32,93,89,79,30.33,30.26,10,2,25,0.09
2013-11-29,48,44,40,43,40,37,88,83,77,30.27,30.09,10,5,24,0.01
2013-11-30,50,45,40,46,42,37,90,86,79,30.08,29.79,18,4,39,0.02
2013-12-1,54,51,47,50,46,43,87,82,76,29.80,29.61,21,13,47,1.24
2013-12-2,57,54,49,52,50,46,93,89,81,30.08,29.72,10,5,23,1.77
2013-12-3,53,49,45,47,40,36,92,71,60,30.22,30.06,20,12,45,0.34
2013-12-4,46,44,42,39,36,32,81,73,61,30.24,30.21,10,3,27,0.00
2013-12-5,48,45,42,44,41,38,92,87,72,30.25,30.14,1,0,4,0.00
2013-12-6,49,46,41,43,41,37,90,84,75,30.14,29.96,3,0,7,0.00
2013-12-7,54,46,40,43,38,35,86,75,62,30.34,30.01,6,1,15,0.00
2013-12-8,52,48,43,46,43,39,89,84,74,30.44,30.33,2,0,8,0.00
2013-12-9,53,49,46,50,46,42,93,88,84,30.44,30.39,1,0,6,0.09
2013-12-10,56,49,42,45,42,39,88,77,64,30.51,30.40,10,2,22,0.00
2013-12-11,55,49,43,44,41,35,82,74,63,30.53,30.47,16,4,30,0.01
2013-12-12,52,45,39,46,39,34,87,80,70,30.51,30.36,1,0,6,0.00
2013-12-13,51,45,41,45,41,37,93,87,78,30.36,30.26,1,0,5,0.00
2013-12-14,51,45,40,43,40,37,92,84,63,30.43,30.30,1,0,7,0.01
2013-12-15,51,47,42,47,41,36,93,81,66,30.47,30.40,6,1,22,0.01
2013-12-16,55,50,46,38,33,26,71,53,37,30.52,30.46,8,3,25,0.00
2013-12-17,55,48,41,40,33,26,79,58,41,30.49,30.41,7,2,20,0.00
2013-12-18,52,44,40,39,32,27,74,62,49,30.40,30.29,2,0,8,0.00
2013-12-19,50,45,38,44,40,30,89,83,68,30.30,30.22,1,0,5,0.00
2013-12-20,55,47,42,46,42,39,89,83,71,30.50,30.23,1,0,5,0.00
2013-12-21,54,48,43,44,41,38,88,77,64,30.58,30.49,10,2,20,0.00
2013-12-22,52,45,41,43,38,34,85,78,66,30.56,30.41,1,0,8,0.00
2013-12-23,51,44,39,40,37,31,85,75,54,30.40,30.28,6,1,15,0.00
2013-12-24,52,47,43,43,40,39,92,77,66,30.21,30.15,1,0,7,0.00
2013-12-25,53,49,44,48,45,42,94,87,78,30.15,29.80,5,0,15,0.00
2013-12-26,54,48,43,49,45,41,94,89,77,29.78,29.44,10,3,23,2.28
2013-12-27,50,44,40,44,42,39,95,90,77,29.92,29.51,2,0,5,0.09
2013-12-28,55,46,40,47,41,37,93,84,68,30.09,29.93,3,0,6,0.00
2013-12-29,53,49,46,50,47,44,94,92,85,30.14,30.07,1,0,5,0.05
2013-12-30,52,50,48,48,46,44,95,87,79,30.14,30.07,8,2,23,0.00
2013-12-31,52,49,47,45,43,42,86,81,76,30.08,30.02,13,8,30,0.00
2014-1-1,52,48,46,48,45,42,91,87,85,30.13,30.04,6,1,17,0.00
2014-1-2,52,48,43,47,45,40,94,89,78,30.13,30.08,1,0,6,0.05